[[{"header":{"parameterUnit":"m.s-1","parameterCategory":1,"la1":30.2991,"la2":30.254,"lo1":-89.0895,"lo2":-89.0444,"dy":0.0017,"dx":0.0017,"nx":28,"ny":28,"refTime":"2023-11-16T09:00:00:Z","depth":0,"parameterNumber":2,"parameterNumberName":"U-component_of_WINDS"},"data":[0,0,0,0,0,0,0,0,0,0,0,0,0,0,0,0,0,0,0,0,0,0,0,0,0,0,0,0,0,0,0,0,0,0,0,0,0,0,0,0,0,0,0,0,0,0,0,0,0,0,0,0,0,0,0,0,0,0,-1.1658,-1.1659,0,-1.1728,-1.1729,-1.173,-1.17,-1.1698,-1.1696,-1.1695,-1.1769,-1.1773,-1.1776,0,0,0,0,0,0,0,0,0,0,0,0,0,-1.1502,-1.1505,-1.1658,-1.1659,-1.166,-1.1728,-1.1729,-1.173,-1.17,-1.1698,-1.1696,-1.1694,-1.1768,-1.1772,-1.1776,0,0,0,0,0,0,0,0,0,0,0,0,0,-1.1571,-1.1506,-1.1658,-1.1653,-1.1653,-1.1728,-1.1729,-1.173,-1.17,-1.1698,-1.1695,-1.1693,-1.1766,-1.1772,-1.1777,-1.1861,0,0,-1.1793,-1.1796,0,0,0,0,0,0,0,0,-1.1567,-1.1576,-1.1653,-1.1654,-1.1654,-1.1703,-1.1701,-1.1774,-1.1701,-1.1683,-1.1695,-1.1692,-1.1749,-1.1756,-1.1775,-1.1865,-1.1868,-1.1794,-1.1797,-1.1799,-1.1801,0,0,0,0,0,0,0,-1.1562,-1.1573,-1.1686,-1.1654,-1.1655,-1.1649,-1.1655,-1.1715,-1.173,-1.1684,-1.1682,-1.1691,-1.1749,-1.177,-1.1776,-1.1869,-1.1794,-1.1798,-1.1802,-1.1804,-1.2034,-1.2036,0,0,0,0,0,0,-1.1557,-1.1569,-1.1684,-1.1688,-1.1603,-1.1653,-1.1661,-1.169,-1.1729,-1.1732,-1.1693,-1.1689,-1.1762,-1.177,-1.1779,-1.1882,-1.1799,-1.1804,-1.1807,-1.2031,-1.2034,-1.2037,0,0,0,0,0,0,-1.1554,-1.1567,-1.1681,-1.1628,-1.1642,-1.1659,-1.1691,-1.1692,-1.1713,-1.1735,-1.1738,-1.1711,-1.176,-1.1771,-1.1841,-1.1884,-1.1807,-1.1812,-1.2027,-1.2032,-1.2036,-1.2087,0,0,0,0,0,0,-1.1549,-1.1566,-1.1598,-1.1629,-1.1645,-1.1742,-1.1694,-1.1696,-1.1722,-1.1718,-1.1753,-1.1756,-1.1759,-1.1833,-1.1847,-1.189,-1.1816,-1.2024,-1.2029,-1.2035,-1.2082,-1.2093,-1.2102,0,0,0,0,0,-1.1544,-1.161,-1.16,-1.1614,-1.1685,-1.1744,-1.1753,-1.1754,-1.1725,-1.1758,-1.1772,-1.1755,-1.1876,-1.1841,-1.1855,-1.1901,-1.2021,-1.2028,-1.2034,-1.2077,-1.209,-1.2102,0,0,0,0,0,0,-1.1583,-1.1614,-1.1603,-1.1681,-1.171,-1.1739,-1.178,-1.1768,-1.1807,-1.1801,-1.1801,-1.1809,-1.1882,-1.1898,-1.1858,-1.1985,-1.1945,-1.1954,-1.1972,-1.1985,-1.1995,-1.1991,-1.182,0,0,0,0,0,-1.1601,-1.1646,-1.167,-1.1736,-1.1752,-1.1763,-1.1789,-1.1787,-1.1818,-1.183,-1.185,-1.1881,-1.1926,-1.1956,-1.1999,-1.2083,-1.2092,-1.2122,-1.2132,-1.214,-1.2149,-1.2197,-1.2211,-1.2059,-1.2059,-1.2059,0,0,-1.1638,-1.166,-1.1689,-1.1745,-1.1767,-1.1815,-1.1774,-1.1826,-1.1862,-1.1838,-1.1906,-1.1922,-1.1957,-1.2035,-1.207,-1.205,-1.2193,-1.2148,-1.2155,-1.2159,-1.2205,-1.2219,-1.2232,-1.2063,-1.2063,-1.2062,0,0,-1.1731,-1.1751,-1.181,-1.1833,-1.1868,-1.1875,-1.1889,-1.192,-1.1929,-1.1997,-1.1981,-1.2024,-1.2101,-1.2127,-1.2151,-1.2254,-1.2241,-1.2268,-1.2322,-1.2368,-1.238,-1.2391,-1.243,-1.2444,-1.2276,-1.2277,-1.2277,0,-1.1774,-1.1844,-1.1841,-1.1895,-1.1921,-1.1901,-1.1961,-1.1984,-1.2031,-1.205,-1.2027,-1.2125,-1.2147,-1.2232,-1.2257,-1.2276,-1.2293,-1.2265,-1.2378,-1.2389,-1.2399,-1.2436,-1.2451,-1.228,-1.228,-1.2279,-1.2279,0,-1.1895,-1.1944,-1.1987,-1.2033,-1.2064,-1.212,-1.2128,-1.2159,-1.2154,-1.2164,-1.2235,-1.226,-1.2309,-1.2328,-1.2324,-1.2413,-1.24,-1.2378,-1.2337,-1.2417,-1.2452,-1.2466,-1.2285,-1.2283,-1.2282,-1.2282,0,0,-1.2016,-1.2059,-1.2075,-1.2097,-1.2133,-1.2172,-1.2228,-1.2275,-1.2303,-1.2335,-1.2384,-1.245,-1.243,-1.2457,-1.2455,-1.2496,-1.2579,-1.2469,-1.247,-1.249,-1.2681,-1.2699,-1.2715,-1.2569,-1.2572,-1.2574,-1.2679,0,-1.2113,-1.2211,-1.221,-1.2301,-1.2348,-1.233,-1.2379,-1.2408,-1.2419,-1.2461,-1.2473,-1.2521,-1.2489,-1.2506,-1.2545,-1.256,-1.2617,-1.2552,-1.2616,-1.2619,-1.261,-1.2733,-1.2752,-1.285,-1.2692,-1.2694,-1.2696,0,-1.2239,-1.2276,-1.2372,-1.2403,-1.2422,-1.2467,-1.251,-1.255,-1.2582,-1.2588,-1.2618,-1.261,-1.2669,-1.2625,-1.2707,-1.2663,-1.2689,-1.2701,-1.2705,-1.2712,-1.2664,-1.2747,-1.2881,-1.2896,-1.2717,-1.2716,-1.2714,0,-1.232,-1.2394,-1.2461,-1.2479,-1.2517,-1.2549,-1.2566,-1.2596,-1.2624,-1.2662,-1.2681,-1.2726,-1.2751,-1.2786,-1.2792,-1.2759,-1.2875,-1.2831,-1.2883,-1.2883,-1.291,-1.2908,-1.3053,-1.2923,-1.2923,-1.2922,-1.2922,0,-1.243,-1.249,-1.2498,-1.254,-1.2607,-1.2606,-1.2672,-1.2687,-1.2714,-1.2759,-1.2746,-1.2789,-1.2792,-1.2837,-1.2841,-1.291,-1.2921,-1.2928,-1.2929,-1.2931,-1.293,-1.2949,-1.2943,-1.2926,-1.2925,-1.2925,-1.2924,0,-1.2532,-1.254,-1.2613,-1.2642,-1.2651,-1.2699,-1.2725,-1.2766,-1.2775,-1.2832,-1.2846,-1.2861,-1.2913,-1.2922,-1.2982,-1.2986,-1.3068,-1.3061,-1.3058,-1.3057,-1.3109,-1.3105,-1.3273,-1.3295,-1.3149,-1.315,-1.3151,0,-1.2603,-1.2648,-1.2683,-1.2712,-1.2731,-1.2777,-1.2806,-1.2808,-1.2839,-1.288,-1.2916,-1.2966,-1.3007,-1.309,-1.3108,-1.3155,-1.315,-1.3206,-1.3157,-1.3158,-1.3154,-1.3152,-1.3158,-1.3216,-1.3217,-1.3218,-1.3219,0,-1.2728,-1.2729,-1.2771,-1.2815,-1.285,-1.2885,-1.2918,-1.2943,-1.2949,-1.2984,-1.3037,-1.3068,-1.313,-1.3181,-1.3228,-1.3247,-1.3236,-1.3234,-1.3249,-1.3252,-1.3249,-1.3254,-1.3085,-1.3231,-1.323,-1.3229,-1.3228,-1.3228,-1.2818,-1.2858,-1.2889,-1.2937,-1.2962,-1.2993,-1.3033,-1.3047,-1.3091,-1.3141,-1.3139,-1.3198,-1.3231,-1.3292,-1.3314,-1.3361,-1.3343,-1.3364,-1.337,-1.3376,-1.3382,-1.324,-1.3369,-1.3369,-1.3368,-1.3368,-1.3368,0,-1.2944,-1.2963,-1.3007,-1.3053,-1.3091,-1.3075,-1.3111,-1.3144,-1.3196,-1.3226,-1.3267,-1.3328,-1.3377,-1.3399,-1.3448,-1.3481,-1.3477,-1.3494,-1.3493,-1.3498,-1.3393,-1.3377,-1.3497,-1.3497,-1.3497,-1.3497,-1.3497,-1.3497,-1.3014,-1.3082,-1.3088,-1.3169,-1.3187,-1.3244,-1.3266,-1.3296,-1.3321,-1.3389,-1.343,-1.3443,-1.3471,-1.3522,-1.3568,-1.3573,-1.3592,-1.3613,-1.3616,-1.3518,-1.3505,-1.3493,-1.3477,-1.3616,-1.3616,-1.3716,-1.3717,-1.3718]},{"header":{"parameterUnit":"m.s-1","parameterCategory":1,"la1":30.2991,"la2":30.254,"lo1":-89.0895,"lo2":-89.0444,"dy":0.0017,"dx":0.0017,"nx":28,"ny":28,"refTime":"2023-11-16T09:00:00:Z","depth":0,"parameterNumber":3,"parameterNumberName":"V-component_of_WINDS"},"data":[0,0,0,0,0,0,0,0,0,0,0,0,0,0,0,0,0,0,0,0,0,0,0,0,0,0,0,0,0,0,0,0,0,0,0,0,0,0,0,0,0,0,0,0,0,0,0,0,0,0,0,0,0,0,0,0,0,0,-2.0912,-2.0912,0,-2.0925,-2.0925,-2.0925,-2.0896,-2.0895,-2.0895,-2.0894,-2.0906,-2.0907,-2.0909,0,0,0,0,0,0,0,0,0,0,0,0,0,-2.0861,-2.0862,-2.0912,-2.0912,-2.0912,-2.0925,-2.0925,-2.0925,-2.0897,-2.0895,-2.0894,-2.0893,-2.0906,-2.0907,-2.0909,0,0,0,0,0,0,0,0,0,0,0,0,0,-2.0879,-2.0863,-2.0912,-2.0899,-2.0898,-2.0925,-2.0925,-2.0925,-2.0897,-2.0895,-2.0894,-2.0893,-2.0905,-2.0907,-2.0909,-2.0947,0,0,-2.0914,-2.0915,0,0,0,0,0,0,0,0,-2.0878,-2.0881,-2.0901,-2.09,-2.0899,-2.0908,-2.0912,-2.0933,-2.0897,-2.0897,-2.0894,-2.0892,-2.0908,-2.0909,-2.0915,-2.0948,-2.0949,-2.0914,-2.0916,-2.0916,-2.0917,0,0,0,0,0,0,0,-2.0877,-2.0881,-2.0917,-2.0901,-2.09,-2.0893,-2.0894,-2.0915,-2.091,-2.0897,-2.0895,-2.0897,-2.0907,-2.0913,-2.0915,-2.0949,-2.0914,-2.0916,-2.0917,-2.0918,-2.1014,-2.1016,0,0,0,0,0,0,-2.0878,-2.088,-2.0916,-2.0917,-2.0885,-2.0895,-2.0896,-2.0906,-2.091,-2.0909,-2.0898,-2.0896,-2.0911,-2.0913,-2.0915,-2.0961,-2.0916,-2.0918,-2.0919,-2.1013,-2.1015,-2.1016,0,0,0,0,0,0,-2.0877,-2.0881,-2.0916,-2.0898,-2.0902,-2.0897,-2.0909,-2.0907,-2.0913,-2.0911,-2.0909,-2.0906,-2.091,-2.0913,-2.094,-2.0961,-2.0919,-2.092,-2.1011,-2.1013,-2.1015,-2.1052,0,0,0,0,0,0,-2.0875,-2.0881,-2.0896,-2.0899,-2.0903,-2.0941,-2.091,-2.0909,-2.0917,-2.0913,-2.0917,-2.0916,-2.0909,-2.0937,-2.0941,-2.0962,-2.0922,-2.1009,-2.1012,-2.1015,-2.1049,-2.1055,-2.1061,0,0,0,0,0,-2.0874,-2.0906,-2.0897,-2.0901,-2.0922,-2.0942,-2.0944,-2.0935,-2.0918,-2.0933,-2.0931,-2.0916,-2.0958,-2.094,-2.0945,-2.0967,-2.1008,-2.1011,-2.1015,-2.1046,-2.1054,-2.1061,0,0,0,0,0,0,-2.0905,-2.0906,-2.0896,-2.093,-2.0936,-2.0937,-2.0956,-2.0944,-2.0955,-2.0951,-2.0939,-2.094,-2.097,-2.0971,-2.0951,-2.1004,-2.098,-2.0984,-2.1002,-2.101,-2.1015,-2.1015,-2.0923,0,0,0,0,0,-2.0916,-2.0933,-2.0932,-2.0962,-2.0966,-2.096,-2.0969,-2.0961,-2.0967,-2.097,-2.097,-2.0976,-2.099,-2.1,-2.1013,-2.1049,-2.1049,-2.1066,-2.1072,-2.1077,-2.1081,-2.11,-2.1108,-2.1027,-2.1027,-2.1027,0,0,-2.0939,-2.0941,-2.0953,-2.0969,-2.0973,-2.099,-2.0963,-2.0982,-2.0995,-2.0972,-2.0998,-2.0999,-2.1005,-2.1036,-2.105,-2.1038,-2.1103,-2.1081,-2.1085,-2.1086,-2.1104,-2.1112,-2.1119,-2.103,-2.1029,-2.1029,0,0,-2.0989,-2.0993,-2.1018,-2.1023,-2.1029,-2.1025,-2.1031,-2.1034,-2.1034,-2.1059,-2.1043,-2.1057,-2.1082,-2.1087,-2.1093,-2.1145,-2.1132,-2.115,-2.1181,-2.12,-2.1206,-2.1211,-2.123,-2.1237,-2.1154,-2.1154,-2.1154,0,-2.1017,-2.1043,-2.1033,-2.1054,-2.1061,-2.1041,-2.1067,-2.1072,-2.1082,-2.1087,-2.1074,-2.1105,-2.1107,-2.114,-2.1153,-2.1158,-2.1164,-2.115,-2.1206,-2.1211,-2.1216,-2.1234,-2.1241,-2.1156,-2.1156,-2.1156,-2.1155,0,-2.1076,-2.1095,-2.1114,-2.1125,-2.1135,-2.1158,-2.1151,-2.1162,-2.1153,-2.115,-2.1177,-2.1179,-2.1192,-2.1199,-2.1191,-2.1231,-2.1223,-2.1208,-2.1183,-2.1226,-2.1243,-2.125,-2.1159,-2.1158,-2.1158,-2.1157,0,0,-2.1148,-2.1152,-2.116,-2.1165,-2.117,-2.1184,-2.1206,-2.1219,-2.1229,-2.1236,-2.1255,-2.1276,-2.1262,-2.1269,-2.126,-2.1277,-2.1319,-2.1259,-2.1259,-2.1271,-2.1363,-2.1375,-2.1383,-2.1309,-2.1311,-2.1312,-2.1363,0,-2.1198,-2.1236,-2.1228,-2.1265,-2.1282,-2.1264,-2.1283,-2.1288,-2.1286,-2.13,-2.1297,-2.1313,-2.1293,-2.1297,-2.1312,-2.131,-2.1337,-2.1306,-2.1326,-2.1327,-2.1326,-2.1392,-2.1405,-2.1453,-2.1369,-2.137,-2.1371,0,-2.1262,-2.1272,-2.1312,-2.1315,-2.1322,-2.1339,-2.1351,-2.1364,-2.137,-2.1367,-2.1374,-2.1363,-2.1384,-2.1359,-2.1389,-2.1368,-2.1376,-2.1376,-2.1378,-2.138,-2.1352,-2.1396,-2.1468,-2.1475,-2.1381,-2.138,-2.1379,0,-2.131,-2.1334,-2.1361,-2.1366,-2.137,-2.1383,-2.1385,-2.1389,-2.1397,-2.1407,-2.1413,-2.1425,-2.1431,-2.1441,-2.1433,-2.1415,-2.1464,-2.1438,-2.1462,-2.1463,-2.1474,-2.1473,-2.1548,-2.1478,-2.1478,-2.1478,-2.1477,0,-2.1368,-2.1393,-2.1383,-2.14,-2.1427,-2.1417,-2.1444,-2.1444,-2.1448,-2.1464,-2.1448,-2.1463,-2.1452,-2.1466,-2.146,-2.1485,-2.1488,-2.1487,-2.1485,-2.1489,-2.1489,-2.1494,-2.1491,-2.1479,-2.1479,-2.1479,-2.1478,0,-2.1427,-2.1422,-2.145,-2.1451,-2.1452,-2.1472,-2.1473,-2.1489,-2.1485,-2.1506,-2.151,-2.1505,-2.1521,-2.1514,-2.153,-2.1526,-2.1559,-2.1553,-2.1558,-2.1556,-2.1581,-2.1579,-2.1662,-2.1673,-2.1595,-2.1596,-2.1596,0,-2.1465,-2.1484,-2.1487,-2.1497,-2.15,-2.1516,-2.1525,-2.1515,-2.1524,-2.1532,-2.1546,-2.1561,-2.1572,-2.1599,-2.1596,-2.1609,-2.1603,-2.1631,-2.1605,-2.1608,-2.1604,-2.1603,-2.1605,-2.1637,-2.1637,-2.1638,-2.1639,0,-2.1532,-2.1528,-2.1541,-2.1554,-2.1565,-2.1574,-2.1582,-2.159,-2.158,-2.1592,-2.1608,-2.1617,-2.1634,-2.1649,-2.166,-2.1662,-2.1649,-2.1647,-2.1653,-2.1658,-2.166,-2.166,-2.1573,-2.1645,-2.1645,-2.1644,-2.1644,-2.1644,-2.1581,-2.1598,-2.1603,-2.1618,-2.1623,-2.163,-2.1645,-2.1644,-2.1657,-2.167,-2.1663,-2.1682,-2.1687,-2.1701,-2.1704,-2.1719,-2.1708,-2.1717,-2.1719,-2.1722,-2.1726,-2.1657,-2.1721,-2.1721,-2.172,-2.172,-2.172,0,-2.1648,-2.1651,-2.1665,-2.1676,-2.1688,-2.1675,-2.1683,-2.1694,-2.1711,-2.1716,-2.1728,-2.1747,-2.1761,-2.1759,-2.1772,-2.1784,-2.1779,-2.1788,-2.1787,-2.1788,-2.1734,-2.1728,-2.1792,-2.1792,-2.1792,-2.1792,-2.1792,-2.1792,-2.1685,-2.1711,-2.1708,-2.1737,-2.1739,-2.1758,-2.1763,-2.177,-2.1774,-2.1796,-2.1808,-2.1807,-2.181,-2.1823,-2.1835,-2.1834,-2.184,-2.1852,-2.1849,-2.1799,-2.1792,-2.1785,-2.1779,-2.1853,-2.1853,-2.1902,-2.1902,-2.1902]}]]